owner,sensor,date,latitude,longitude,vertical_datum,sea_water_practical_salinity,qcFlag 
DISL,ioos:station:DISL:KATA:1,2017-10-01T00:00:00Z,30.2583,-88.2131,4.076,24.29,1111122 
DISL,ioos:station:DISL:KATA:1,2017-10-01T00:30:00Z,30.2583,-88.2131,4.114,24.32,1111122 
DISL,ioos:station:DISL:KATA:1,2017-10-01T01:00:00Z,30.2583,-88.2131,4.096,23.34,1111122 
DISL,ioos:station:DISL:KATA:1,2017-10-01T01:30:00Z,30.2583,-88.2131,4.082,24.34,1111122 
DISL,ioos:station:DISL:KATA:1,2017-10-01T02:00:00Z,30.2583,-88.2131,4.129,23.79,1111122 
DISL,ioos:station:DISL:KATA:1,2017-10-01T02:30:00Z,30.2583,-88.2131,4.146,24.16,1111122 
DISL,ioos:station:DISL:KATA:1,2017-10-01T03:00:00Z,30.2583,-88.2131,4.142,24.01,1111122 
DISL,ioos:station:DISL:KATA:1,2017-10-01T03:30:00Z,30.2583,-88.2131,4.164,24.13,1111122 
DISL,ioos:station:DISL:KATA:1,2017-10-01T04:00:00Z,30.2583,-88.2131,4.2,23.94,1111122 
DISL,ioos:station:DISL:KATA:1,2017-10-01T04:30:00Z,30.2583,-88.2131,4.219,23.96,1111122 
DISL,ioos:station:DISL:KATA:1,2017-10-01T05:00:00Z,30.2583,-88.2131,4.256,21.83,1111122 
DISL,ioos:station:DISL:KATA:1,2017-10-01T05:30:00Z,30.2583,-88.2131,4.244,22.19,1111122 
DISL,ioos:station:DISL:KATA:1,2017-10-01T06:00:00Z,30.2583,-88.2131,4.223,22.58,1111122 
DISL,ioos:station:DISL:KATA:1,2017-10-01T06:30:00Z,30.2583,-88.2131,4.247,23.45,1111122 
DISL,ioos:station:DISL:KATA:1,2017-10-01T07:00:00Z,30.2583,-88.2131,4.257,22.59,1111122 
DISL,ioos:station:DISL:KATA:1,2017-10-01T07:30:00Z,30.2583,-88.2131,4.242,23.87,1111122 
DISL,ioos:station:DISL:KATA:1,2017-10-01T08:00:00Z,30.2583,-88.2131,4.267,23.82,1111122 
DISL,ioos:station:DISL:KATA:1,2017-10-01T08:30:00Z,30.2583,-88.2131,4.301,24.15,1111122 
DISL,ioos:station:DISL:KATA:1,2017-10-01T09:00:00Z,30.2583,-88.2131,4.344,23.95,1111122 
DISL,ioos:station:DISL:KATA:1,2017-10-01T09:30:00Z,30.2583,-88.2131,4.387,24.04,1111122 
DISL,ioos:station:DISL:KATA:1,2017-10-01T10:00:00Z,30.2583,-88.2131,4.368,23.63,1111122 
DISL,ioos:station:DISL:KATA:1,2017-10-01T10:30:00Z,30.2583,-88.2131,4.334,23.46,1111122 
DISL,ioos:station:DISL:KATA:1,2017-10-01T11:00:00Z,30.2583,-88.2131,4.417,23.1,1111122 
DISL,ioos:station:DISL:KATA:1,2017-10-01T11:30:00Z,30.2583,-88.2131,4.426,23.27,1111122 
DISL,ioos:station:DISL:KATA:1,2017-10-01T12:00:00Z,30.2583,-88.2131,4.399,24.88,1111122 
DISL,ioos:station:DISL:KATA:1,2017-10-01T12:30:00Z,30.2583,-88.2131,4.387,25.04,1111122 
DISL,ioos:station:DISL:KATA:1,2017-10-01T13:00:00Z,30.2583,-88.2131,4.394,24.3,1111122 
DISL,ioos:station:DISL:KATA:1,2017-10-01T13:30:00Z,30.2583,-88.2131,4.352,24.26,1111122 
DISL,ioos:station:DISL:KATA:1,2017-10-01T14:00:00Z,30.2583,-88.2131,4.364,24.49,1111122 
DISL,ioos:station:DISL:KATA:1,2017-10-01T14:30:00Z,30.2583,-88.2131,4.347,25.69,1111122 
DISL,ioos:station:DISL:KATA:1,2017-10-01T15:00:00Z,30.2583,-88.2131,4.344,24.85,1111122 
DISL,ioos:station:DISL:KATA:1,2017-10-01T15:30:00Z,30.2583,-88.2131,4.337,25.26,1111122 
DISL,ioos:station:DISL:KATA:1,2017-10-01T16:00:00Z,30.2583,-88.2131,4.327,25.3,1111122 
DISL,ioos:station:DISL:KATA:1,2017-10-01T16:30:00Z,30.2583,-88.2131,4.316,25.56,1111122 
DISL,ioos:station:DISL:KATA:1,2017-10-01T17:00:00Z,30.2583,-88.2131,4.296,25.74,1111122 
DISL,ioos:station:DISL:KATA:1,2017-10-01T17:30:00Z,30.2583,-88.2131,4.281,24.72,1111122 
DISL,ioos:station:DISL:KATA:1,2017-10-01T18:00:00Z,30.2583,-88.2131,4.277,23.86,1111122 
DISL,ioos:station:DISL:KATA:1,2017-10-01T18:30:00Z,30.2583,-88.2131,4.258,25.32,1111122 
DISL,ioos:station:DISL:KATA:1,2017-10-01T19:00:00Z,30.2583,-88.2131,4.241,25.1,1111122 
DISL,ioos:station:DISL:KATA:1,2017-10-01T19:30:00Z,30.2583,-88.2131,4.229,25.42,1111122 
DISL,ioos:station:DISL:KATA:1,2017-10-01T20:00:00Z,30.2583,-88.2131,4.223,25.84,1111122 
DISL,ioos:station:DISL:KATA:1,2017-10-01T20:30:00Z,30.2583,-88.2131,4.224,25.88,1111122 
DISL,ioos:station:DISL:KATA:1,2017-10-01T21:00:00Z,30.2583,-88.2131,4.228,26.07,1111122 
DISL,ioos:station:DISL:KATA:1,2017-10-01T21:30:00Z,30.2583,-88.2131,4.194,24.85,1111122 
DISL,ioos:station:DISL:KATA:1,2017-10-01T22:00:00Z,30.2583,-88.2131,4.14,25.92,1111122 
DISL,ioos:station:DISL:KATA:1,2017-10-01T22:30:00Z,30.2583,-88.2131,4.152,24.72,1111122 
DISL,ioos:station:DISL:KATA:1,2017-10-01T23:00:00Z,30.2583,-88.2131,4.137,24.8,1111122 
DISL,ioos:station:DISL:KATA:1,2017-10-01T23:30:00Z,30.2583,-88.2131,4.142,23.88,1111122 
DISL,ioos:station:DISL:KATA:1,2017-10-02T00:00:00Z,30.2583,-88.2131,4.135,25.37,1111122 
DISL,ioos:station:DISL:KATA:1,2017-10-02T00:30:00Z,30.2583,-88.2131,4.148,24.95,1111122 
DISL,ioos:station:DISL:KATA:1,2017-10-02T01:00:00Z,30.2583,-88.2131,4.158,25.37,1111122 
DISL,ioos:station:DISL:KATA:1,2017-10-02T01:30:00Z,30.2583,-88.2131,4.143,23.37,1111122 
DISL,ioos:station:DISL:KATA:1,2017-10-02T02:00:00Z,30.2583,-88.2131,4.165,24.0,1111122 
DISL,ioos:station:DISL:KATA:1,2017-10-02T02:30:00Z,30.2583,-88.2131,4.201,22.8,1111122 
DISL,ioos:station:DISL:KATA:1,2017-10-02T03:00:00Z,30.2583,-88.2131,4.216,21.39,1111122 
DISL,ioos:station:DISL:KATA:1,2017-10-02T03:30:00Z,30.2583,-88.2131,4.241,19.89,1111122 
DISL,ioos:station:DISL:KATA:1,2017-10-02T04:00:00Z,30.2583,-88.2131,4.255,20.46,1111122 
DISL,ioos:station:DISL:KATA:1,2017-10-02T04:30:00Z,30.2583,-88.2131,4.272,20.31,1111122 
DISL,ioos:station:DISL:KATA:1,2017-10-02T05:00:00Z,30.2583,-88.2131,4.287,22.04,1111122 
DISL,ioos:station:DISL:KATA:1,2017-10-02T05:30:00Z,30.2583,-88.2131,4.319,21.99,1111122 
DISL,ioos:station:DISL:KATA:1,2017-10-02T06:00:00Z,30.2583,-88.2131,4.351,21.69,1111122 
DISL,ioos:station:DISL:KATA:1,2017-10-02T06:30:00Z,30.2583,-88.2131,4.354,22.19,1111122 
DISL,ioos:station:DISL:KATA:1,2017-10-02T07:00:00Z,30.2583,-88.2131,4.302,21.87,1111122 
DISL,ioos:station:DISL:KATA:1,2017-10-02T07:30:00Z,30.2583,-88.2131,4.405,22.35,1111122 
DISL,ioos:station:DISL:KATA:1,2017-10-02T08:00:00Z,30.2583,-88.2131,4.442,21.3,1111122 
DISL,ioos:station:DISL:KATA:1,2017-10-02T08:30:00Z,30.2583,-88.2131,4.45,22.28,1111122 
DISL,ioos:station:DISL:KATA:1,2017-10-02T09:00:00Z,30.2583,-88.2131,4.494,20.62,1111122 
DISL,ioos:station:DISL:KATA:1,2017-10-02T09:30:00Z,30.2583,-88.2131,4.531,21.65,1111122 
DISL,ioos:station:DISL:KATA:1,2017-10-02T10:00:00Z,30.2583,-88.2131,4.569,21.78,1111122 
DISL,ioos:station:DISL:KATA:1,2017-10-02T10:30:00Z,30.2583,-88.2131,4.592,20.84,1111122 
DISL,ioos:station:DISL:KATA:1,2017-10-02T11:00:00Z,30.2583,-88.2131,4.627,21.8,1111122 
DISL,ioos:station:DISL:KATA:1,2017-10-02T11:30:00Z,30.2583,-88.2131,4.62,20.97,1111122 
DISL,ioos:station:DISL:KATA:1,2017-10-02T12:00:00Z,30.2583,-88.2131,4.633,20.67,1111122 
DISL,ioos:station:DISL:KATA:1,2017-10-02T12:30:00Z,30.2583,-88.2131,4.633,21.2,1111122 
DISL,ioos:station:DISL:KATA:1,2017-10-02T13:00:00Z,30.2583,-88.2131,4.619,21.46,1111122 
DISL,ioos:station:DISL:KATA:1,2017-10-02T13:30:00Z,30.2583,-88.2131,4.605,21.31,1111122 
DISL,ioos:station:DISL:KATA:1,2017-10-02T14:00:00Z,30.2583,-88.2131,4.596,21.21,1111122 
DISL,ioos:station:DISL:KATA:1,2017-10-02T14:30:00Z,30.2583,-88.2131,4.579,20.06,1111122 
DISL,ioos:station:DISL:KATA:1,2017-10-02T15:00:00Z,30.2583,-88.2131,4.563,19.69,1111122 
DISL,ioos:station:DISL:KATA:1,2017-10-02T15:30:00Z,30.2583,-88.2131,4.535,20.7,1111122 
DISL,ioos:station:DISL:KATA:1,2017-10-02T16:00:00Z,30.2583,-88.2131,4.498,21.98,1111122 
DISL,ioos:station:DISL:KATA:1,2017-10-02T16:30:00Z,30.2583,-88.2131,4.49,21.68,1111122 
DISL,ioos:station:DISL:KATA:1,2017-10-02T17:00:00Z,30.2583,-88.2131,4.46,23.38,1111122 
DISL,ioos:station:DISL:KATA:1,2017-10-02T17:30:00Z,30.2583,-88.2131,4.426,22.56,1111122 
DISL,ioos:station:DISL:KATA:1,2017-10-02T18:00:00Z,30.2583,-88.2131,4.412,21.55,1111122 
DISL,ioos:station:DISL:KATA:1,2017-10-02T18:30:00Z,30.2583,-88.2131,4.383,21.82,1111122 
DISL,ioos:station:DISL:KATA:1,2017-10-02T19:00:00Z,30.2583,-88.2131,4.354,21.8,1111122 
DISL,ioos:station:DISL:KATA:1,2017-10-02T19:30:00Z,30.2583,-88.2131,4.307,22.78,1111122 
DISL,ioos:station:DISL:KATA:1,2017-10-02T20:00:00Z,30.2583,-88.2131,4.273,23.72,1111122 
DISL,ioos:station:DISL:KATA:1,2017-10-02T20:30:00Z,30.2583,-88.2131,4.258,23.62,1111122 
DISL,ioos:station:DISL:KATA:1,2017-10-02T21:00:00Z,30.2583,-88.2131,4.258,23.31,1111122 
DISL,ioos:station:DISL:KATA:1,2017-10-02T21:30:00Z,30.2583,-88.2131,4.245,24.0,1111122 
DISL,ioos:station:DISL:KATA:1,2017-10-02T22:00:00Z,30.2583,-88.2131,4.248,23.83,1111122 
DISL,ioos:station:DISL:KATA:1,2017-10-02T22:30:00Z,30.2583,-88.2131,4.248,24.58,1111122 
DISL,ioos:station:DISL:KATA:1,2017-10-02T23:00:00Z,30.2583,-88.2131,4.255,23.25,1111122 
DISL,ioos:station:DISL:KATA:1,2017-10-02T23:30:00Z,30.2583,-88.2131,4.283,22.73,1111122 
DISL,ioos:station:DISL:KATA:1,2017-10-03T00:00:00Z,30.2583,-88.2131,4.271,23.76,1111122 
DISL,ioos:station:DISL:KATA:1,2017-10-03T00:30:00Z,30.2583,-88.2131,4.283,23.78,1111122 
DISL,ioos:station:DISL:KATA:1,2017-10-03T01:00:00Z,30.2583,-88.2131,4.303,23.85,1111122 
DISL,ioos:station:DISL:KATA:1,2017-10-03T01:30:00Z,30.2583,-88.2131,4.313,23.71,1111122 
DISL,ioos:station:DISL:KATA:1,2017-10-03T02:00:00Z,30.2583,-88.2131,4.333,22.24,1111122 
DISL,ioos:station:DISL:KATA:1,2017-10-03T02:30:00Z,30.2583,-88.2131,4.349,21.93,1111122 
DISL,ioos:station:DISL:KATA:1,2017-10-03T03:00:00Z,30.2583,-88.2131,4.353,23.96,1111122 
DISL,ioos:station:DISL:KATA:1,2017-10-03T03:30:00Z,30.2583,-88.2131,4.353,24.13,1111122 
DISL,ioos:station:DISL:KATA:1,2017-10-03T04:00:00Z,30.2583,-88.2131,4.363,23.61,1111122 
DISL,ioos:station:DISL:KATA:1,2017-10-03T04:30:00Z,30.2583,-88.2131,4.381,24.48,1111122 
DISL,ioos:station:DISL:KATA:1,2017-10-03T05:00:00Z,30.2583,-88.2131,4.382,24.17,1111122 
DISL,ioos:station:DISL:KATA:1,2017-10-03T05:30:00Z,30.2583,-88.2131,4.383,24.31,1111122 
DISL,ioos:station:DISL:KATA:1,2017-10-03T06:00:00Z,30.2583,-88.2131,4.378,25.65,1111122 
DISL,ioos:station:DISL:KATA:1,2017-10-03T06:30:00Z,30.2583,-88.2131,4.381,25.91,1111122 
DISL,ioos:station:DISL:KATA:1,2017-10-03T07:00:00Z,30.2583,-88.2131,4.378,26.52,1111122 
DISL,ioos:station:DISL:KATA:1,2017-10-03T07:30:00Z,30.2583,-88.2131,4.385,25.04,1111122 
DISL,ioos:station:DISL:KATA:1,2017-10-03T08:00:00Z,30.2583,-88.2131,4.386,25.88,1111122 
DISL,ioos:station:DISL:KATA:1,2017-10-03T08:30:00Z,30.2583,-88.2131,4.394,26.99,1111122 
DISL,ioos:station:DISL:KATA:1,2017-10-03T09:00:00Z,30.2583,-88.2131,4.407,26.36,1111122 
DISL,ioos:station:DISL:KATA:1,2017-10-03T09:30:00Z,30.2583,-88.2131,4.406,25.47,1111122 
DISL,ioos:station:DISL:KATA:1,2017-10-03T10:00:00Z,30.2583,-88.2131,4.404,26.45,1111122 
DISL,ioos:station:DISL:KATA:1,2017-10-03T10:30:00Z,30.2583,-88.2131,4.425,25.55,1111122 
DISL,ioos:station:DISL:KATA:1,2017-10-03T11:00:00Z,30.2583,-88.2131,4.442,25.03,1111122 
DISL,ioos:station:DISL:KATA:1,2017-10-03T11:30:00Z,30.2583,-88.2131,4.463,25.43,1111122 
DISL,ioos:station:DISL:KATA:1,2017-10-03T12:00:00Z,30.2583,-88.2131,4.496,25.29,1111122 
DISL,ioos:station:DISL:KATA:1,2017-10-03T12:30:00Z,30.2583,-88.2131,4.527,24.48,1111122 
DISL,ioos:station:DISL:KATA:1,2017-10-03T13:00:00Z,30.2583,-88.2131,4.536,24.8,1111122 
DISL,ioos:station:DISL:KATA:1,2017-10-03T13:30:00Z,30.2583,-88.2131,4.531,24.9,1111122 
DISL,ioos:station:DISL:KATA:1,2017-10-03T14:00:00Z,30.2583,-88.2131,4.537,23.48,1111122 
DISL,ioos:station:DISL:KATA:1,2017-10-03T14:30:00Z,30.2583,-88.2131,4.532,24.68,1111122 
DISL,ioos:station:DISL:KATA:1,2017-10-03T15:00:00Z,30.2583,-88.2131,4.513,27.3,1111122 
DISL,ioos:station:DISL:KATA:1,2017-10-03T15:30:00Z,30.2583,-88.2131,4.491,27.09,1111122 
DISL,ioos:station:DISL:KATA:1,2017-10-03T16:00:00Z,30.2583,-88.2131,4.483,27.6,1111122 
DISL,ioos:station:DISL:KATA:1,2017-10-03T16:30:00Z,30.2583,-88.2131,4.453,27.58,1111122 
DISL,ioos:station:DISL:KATA:1,2017-10-03T17:00:00Z,30.2583,-88.2131,4.437,27.41,1111122 
DISL,ioos:station:DISL:KATA:1,2017-10-03T17:30:00Z,30.2583,-88.2131,4.419,27.0,1111122 
DISL,ioos:station:DISL:KATA:1,2017-10-03T18:00:00Z,30.2583,-88.2131,4.391,25.86,1111122 
DISL,ioos:station:DISL:KATA:1,2017-10-03T18:30:00Z,30.2583,-88.2131,4.37,24.53,1111122 
DISL,ioos:station:DISL:KATA:1,2017-10-03T19:00:00Z,30.2583,-88.2131,4.338,25.51,1111122 
DISL,ioos:station:DISL:KATA:1,2017-10-03T19:30:00Z,30.2583,-88.2131,4.305,26.28,1111122 
DISL,ioos:station:DISL:KATA:1,2017-10-03T20:00:00Z,30.2583,-88.2131,4.272,25.72,1111122 
DISL,ioos:station:DISL:KATA:1,2017-10-03T20:30:00Z,30.2583,-88.2131,4.261,24.85,1111122 
DISL,ioos:station:DISL:KATA:1,2017-10-03T21:00:00Z,30.2583,-88.2131,4.2,26.8,11111222 
DISL,ioos:station:DISL:KATA:1,2017-10-03T21:30:00Z,30.2583,-88.2131,4.236,25.38,1111122 
DISL,ioos:station:DISL:KATA:1,2017-10-03T22:00:00Z,30.2583,-88.2131,4.2,26.9,11111222 
DISL,ioos:station:DISL:KATA:1,2017-10-03T22:30:00Z,30.2583,-88.2131,4.219,27.74,1111122 
DISL,ioos:station:DISL:KATA:1,2017-10-03T23:00:00Z,30.2583,-88.2131,4.2,26.2,11111222 
DISL,ioos:station:DISL:KATA:1,2017-10-03T23:30:00Z,30.2583,-88.2131,4.236,27.87,1111122 
DISL,ioos:station:DISL:KATA:1,2017-10-04T00:00:00Z,30.2583,-88.2131,4.3,27.9,11111222 
DISL,ioos:station:DISL:KATA:1,2017-10-04T00:30:00Z,30.2583,-88.2131,4.266,27.82,1111122 
DISL,ioos:station:DISL:KATA:1,2017-10-04T01:00:00Z,30.2583,-88.2131,4.3,27.5,11111222 
DISL,ioos:station:DISL:KATA:1,2017-10-04T01:30:00Z,30.2583,-88.2131,4.291,27.71,1111122 
DISL,ioos:station:DISL:KATA:1,2017-10-04T02:00:00Z,30.2583,-88.2131,4.3,27.7,11111222 
DISL,ioos:station:DISL:KATA:1,2017-10-04T02:30:00Z,30.2583,-88.2131,4.3,27.15,1111122 
DISL,ioos:station:DISL:KATA:1,2017-10-04T03:00:00Z,30.2583,-88.2131,4.3,25.8,11111222 
DISL,ioos:station:DISL:KATA:1,2017-10-04T03:30:00Z,30.2583,-88.2131,4.289,26.53,1111122 
DISL,ioos:station:DISL:KATA:1,2017-10-04T04:00:00Z,30.2583,-88.2131,4.3,26.6,11111222 
DISL,ioos:station:DISL:KATA:1,2017-10-04T04:30:00Z,30.2583,-88.2131,4.274,26.79,1111122 
DISL,ioos:station:DISL:KATA:1,2017-10-04T05:00:00Z,30.2583,-88.2131,4.3,25.8,11111222 
DISL,ioos:station:DISL:KATA:1,2017-10-04T05:30:00Z,30.2583,-88.2131,4.239,25.42,1111122 
DISL,ioos:station:DISL:KATA:1,2017-10-04T06:00:00Z,30.2583,-88.2131,4.2,25.5,11111222 
DISL,ioos:station:DISL:KATA:1,2017-10-04T06:30:00Z,30.2583,-88.2131,4.211,27.49,1111122 
DISL,ioos:station:DISL:KATA:1,2017-10-04T07:00:00Z,30.2583,-88.2131,4.2,27.6,11111222 
DISL,ioos:station:DISL:KATA:1,2017-10-04T07:30:00Z,30.2583,-88.2131,4.203,27.97,1111122 
DISL,ioos:station:DISL:KATA:1,2017-10-04T08:00:00Z,30.2583,-88.2131,4.2,27.7,11111222 
DISL,ioos:station:DISL:KATA:1,2017-10-04T08:30:00Z,30.2583,-88.2131,4.2,27.91,1111122 
DISL,ioos:station:DISL:KATA:1,2017-10-04T09:00:00Z,30.2583,-88.2131,4.2,27.7,11111222 
DISL,ioos:station:DISL:KATA:1,2017-10-04T09:30:00Z,30.2583,-88.2131,4.227,27.8,1111122 
DISL,ioos:station:DISL:KATA:1,2017-10-04T10:00:00Z,30.2583,-88.2131,4.3,27.9,11111222 
DISL,ioos:station:DISL:KATA:1,2017-10-04T10:30:00Z,30.2583,-88.2131,4.3,27.8,11111222 
DISL,ioos:station:DISL:KATA:1,2017-10-04T11:00:00Z,30.2583,-88.2131,4.306,27.47,1111122 
DISL,ioos:station:DISL:KATA:1,2017-10-04T11:30:00Z,30.2583,-88.2131,4.3,27.4,11111222 
DISL,ioos:station:DISL:KATA:1,2017-10-04T12:00:00Z,30.2583,-88.2131,4.3,27.9,11111222 
DISL,ioos:station:DISL:KATA:1,2017-10-04T12:30:00Z,30.2583,-88.2131,4.352,27.9,1111122 
DISL,ioos:station:DISL:KATA:1,2017-10-04T13:00:00Z,30.2583,-88.2131,4.4,28.1,11111222 
DISL,ioos:station:DISL:KATA:1,2017-10-04T13:30:00Z,30.2583,-88.2131,4.359,28.09,1111122 
DISL,ioos:station:DISL:KATA:1,2017-10-04T14:00:00Z,30.2583,-88.2131,4.4,28.1,11111222 
DISL,ioos:station:DISL:KATA:1,2017-10-04T14:30:00Z,30.2583,-88.2131,4.364,28.08,1111122 
DISL,ioos:station:DISL:KATA:1,2017-10-04T15:00:00Z,30.2583,-88.2131,4.4,28.1,11111222 
DISL,ioos:station:DISL:KATA:1,2017-10-04T15:30:00Z,30.2583,-88.2131,4.363,28.11,1111122 
DISL,ioos:station:DISL:KATA:1,2017-10-04T16:00:00Z,30.2583,-88.2131,4.4,27.8,11111222 
DISL,ioos:station:DISL:KATA:1,2017-10-04T16:30:00Z,30.2583,-88.2131,4.363,27.73,1111122 
DISL,ioos:station:DISL:KATA:1,2017-10-04T17:00:00Z,30.2583,-88.2131,4.4,27.6,11111222 
DISL,ioos:station:DISL:KATA:1,2017-10-04T17:30:00Z,30.2583,-88.2131,4.378,27.63,1111122 
DISL,ioos:station:DISL:KATA:1,2017-10-04T18:00:00Z,30.2583,-88.2131,4.4,27.8,11111222 
DISL,ioos:station:DISL:KATA:1,2017-10-04T18:30:00Z,30.2583,-88.2131,4.363,27.77,1111122 
DISL,ioos:station:DISL:KATA:1,2017-10-04T19:00:00Z,30.2583,-88.2131,4.4,27.1,11111222 
DISL,ioos:station:DISL:KATA:1,2017-10-04T19:30:00Z,30.2583,-88.2131,4.336,27.33,1111122 
DISL,ioos:station:DISL:KATA:1,2017-10-04T20:00:00Z,30.2583,-88.2131,4.3,27.0,11111222 
DISL,ioos:station:DISL:KATA:1,2017-10-04T20:30:00Z,30.2583,-88.2131,4.272,27.62,1111122 
DISL,ioos:station:DISL:KATA:1,2017-10-04T21:00:00Z,30.2583,-88.2131,4.3,27.6,11111222 
DISL,ioos:station:DISL:KATA:1,2017-10-04T21:30:00Z,30.2583,-88.2131,4.235,27.38,1111122 
DISL,ioos:station:DISL:KATA:1,2017-10-04T22:00:00Z,30.2583,-88.2131,4.2,27.4,11111222 
DISL,ioos:station:DISL:KATA:1,2017-10-04T22:30:00Z,30.2583,-88.2131,4.22,27.49,1111122 
DISL,ioos:station:DISL:KATA:1,2017-10-04T23:00:00Z,30.2583,-88.2131,4.2,27.5,11111222 
DISL,ioos:station:DISL:KATA:1,2017-10-04T23:30:00Z,30.2583,-88.2131,4.242,27.49,1111122 
DISL,ioos:station:DISL:KATA:1,2017-10-05T00:00:00Z,30.2583,-88.2131,4.3,27.4,11111222 
DISL,ioos:station:DISL:KATA:1,2017-10-05T00:30:00Z,30.2583,-88.2131,4.285,27.37,1111122 
DISL,ioos:station:DISL:KATA:1,2017-10-05T01:00:00Z,30.2583,-88.2131,4.3,27.2,11111222 
DISL,ioos:station:DISL:KATA:1,2017-10-05T01:30:00Z,30.2583,-88.2131,4.327,27.26,1111122 
DISL,ioos:station:DISL:KATA:1,2017-10-05T02:00:00Z,30.2583,-88.2131,4.3,27.3,11111222 
DISL,ioos:station:DISL:KATA:1,2017-10-05T02:30:00Z,30.2583,-88.2131,4.332,27.27,1111122 
DISL,ioos:station:DISL:KATA:1,2017-10-05T03:00:00Z,30.2583,-88.2131,4.3,26.8,11111222 
DISL,ioos:station:DISL:KATA:1,2017-10-05T03:30:00Z,30.2583,-88.2131,4.322,26.95,1111122 
DISL,ioos:station:DISL:KATA:1,2017-10-05T04:00:00Z,30.2583,-88.2131,4.3,27.3,11111222 
DISL,ioos:station:DISL:KATA:1,2017-10-05T04:30:00Z,30.2583,-88.2131,4.315,27.33,1111122 
DISL,ioos:station:DISL:KATA:1,2017-10-05T05:00:00Z,30.2583,-88.2131,4.3,26.3,11111222 
DISL,ioos:station:DISL:KATA:1,2017-10-05T05:30:00Z,30.2583,-88.2131,4.313,27.04,1111122 
DISL,ioos:station:DISL:KATA:1,2017-10-05T06:00:00Z,30.2583,-88.2131,4.3,26.7,11111222 
DISL,ioos:station:DISL:KATA:1,2017-10-05T06:30:00Z,30.2583,-88.2131,4.291,26.64,1111122 
DISL,ioos:station:DISL:KATA:1,2017-10-05T07:00:00Z,30.2583,-88.2131,4.3,26.3,11111222 
DISL,ioos:station:DISL:KATA:1,2017-10-05T07:30:00Z,30.2583,-88.2131,4.256,26.9,1111122 
DISL,ioos:station:DISL:KATA:1,2017-10-05T08:00:00Z,30.2583,-88.2131,4.3,27.0,11111222 
DISL,ioos:station:DISL:KATA:1,2017-10-05T08:30:00Z,30.2583,-88.2131,4.238,26.96,1111122 
DISL,ioos:station:DISL:KATA:1,2017-10-05T09:00:00Z,30.2583,-88.2131,4.2,27.1,11111222 
DISL,ioos:station:DISL:KATA:1,2017-10-05T09:30:00Z,30.2583,-88.2131,4.229,27.06,1111122 
DISL,ioos:station:DISL:KATA:1,2017-10-05T10:00:00Z,30.2583,-88.2131,4.2,27.0,11111222 
DISL,ioos:station:DISL:KATA:1,2017-10-05T10:30:00Z,30.2583,-88.2131,4.261,26.45,1111122 
DISL,ioos:station:DISL:KATA:1,2017-10-05T11:00:00Z,30.2583,-88.2131,4.3,25.9,11111222 
DISL,ioos:station:DISL:KATA:1,2017-10-05T11:30:00Z,30.2583,-88.2131,4.315,26.39,1111122 
DISL,ioos:station:DISL:KATA:1,2017-10-05T12:00:00Z,30.2583,-88.2131,4.4,25.0,11111222 
DISL,ioos:station:DISL:KATA:1,2017-10-05T12:30:00Z,30.2583,-88.2131,4.354,24.66,1111122 
DISL,ioos:station:DISL:KATA:1,2017-10-05T13:00:00Z,30.2583,-88.2131,4.4,24.4,11111222 
DISL,ioos:station:DISL:KATA:1,2017-10-05T13:30:00Z,30.2583,-88.2131,4.401,24.16,1111122 
DISL,ioos:station:DISL:KATA:1,2017-10-05T14:00:00Z,30.2583,-88.2131,4.4,24.1,11111222 
DISL,ioos:station:DISL:KATA:1,2017-10-05T14:30:00Z,30.2583,-88.2131,4.415,23.43,1111122 
DISL,ioos:station:DISL:KATA:1,2017-10-05T15:00:00Z,30.2583,-88.2131,4.4,24.4,11111222 
DISL,ioos:station:DISL:KATA:1,2017-10-05T15:30:00Z,30.2583,-88.2131,4.413,23.99,1111122 
DISL,ioos:station:DISL:KATA:1,2017-10-05T16:00:00Z,30.2583,-88.2131,4.4,24.1,11111222 
DISL,ioos:station:DISL:KATA:1,2017-10-05T16:30:00Z,30.2583,-88.2131,4.401,23.94,1111122 
DISL,ioos:station:DISL:KATA:1,2017-10-05T17:00:00Z,30.2583,-88.2131,4.4,24.0,11111222 
DISL,ioos:station:DISL:KATA:1,2017-10-05T17:30:00Z,30.2583,-88.2131,4.434,23.92,1111122 
DISL,ioos:station:DISL:KATA:1,2017-10-05T18:00:00Z,30.2583,-88.2131,4.4,23.8,11111222 
DISL,ioos:station:DISL:KATA:1,2017-10-05T18:30:00Z,30.2583,-88.2131,4.435,23.85,1111122 
DISL,ioos:station:DISL:KATA:1,2017-10-05T19:00:00Z,30.2583,-88.2131,4.4,23.9,11111222 
DISL,ioos:station:DISL:KATA:1,2017-10-05T19:30:00Z,30.2583,-88.2131,4.422,23.86,1111122 
DISL,ioos:station:DISL:KATA:1,2017-10-05T20:00:00Z,30.2583,-88.2131,4.4,23.8,11111222 
DISL,ioos:station:DISL:KATA:1,2017-10-05T20:30:00Z,30.2583,-88.2131,4.392,23.46,1111122 
DISL,ioos:station:DISL:KATA:1,2017-10-05T21:00:00Z,30.2583,-88.2131,4.4,23.8,11111222 
DISL,ioos:station:DISL:KATA:1,2017-10-05T21:30:00Z,30.2583,-88.2131,4.33,24.0,1111122 
DISL,ioos:station:DISL:KATA:1,2017-10-05T22:00:00Z,30.2583,-88.2131,4.3,23.9,11111222 
DISL,ioos:station:DISL:KATA:1,2017-10-05T22:30:00Z,30.2583,-88.2131,4.29,23.78,1111122 
DISL,ioos:station:DISL:KATA:1,2017-10-05T23:00:00Z,30.2583,-88.2131,4.3,23.7,11111222 
DISL,ioos:station:DISL:KATA:1,2017-10-05T23:30:00Z,30.2583,-88.2131,4.283,23.57,1111122 
DISL,ioos:station:DISL:KATA:1,2017-10-06T00:00:00Z,30.2583,-88.2131,4.3,23.9,11111222 
DISL,ioos:station:DISL:KATA:1,2017-10-06T00:30:00Z,30.2583,-88.2131,4.316,23.84,1111122 
DISL,ioos:station:DISL:KATA:1,2017-10-06T01:00:00Z,30.2583,-88.2131,4.3,23.7,11111222 
DISL,ioos:station:DISL:KATA:1,2017-10-06T01:30:00Z,30.2583,-88.2131,4.345,23.74,1111122 
DISL,ioos:station:DISL:KATA:1,2017-10-06T02:00:00Z,30.2583,-88.2131,4.4,23.8,11111222 
DISL,ioos:station:DISL:KATA:1,2017-10-06T02:30:00Z,30.2583,-88.2131,4.362,23.76,1111122 
DISL,ioos:station:DISL:KATA:1,2017-10-06T03:00:00Z,30.2583,-88.2131,4.4,23.8,11111222 
DISL,ioos:station:DISL:KATA:1,2017-10-06T03:30:00Z,30.2583,-88.2131,4.342,23.72,1111122 
DISL,ioos:station:DISL:KATA:1,2017-10-06T04:00:00Z,30.2583,-88.2131,4.3,23.8,11111222 
DISL,ioos:station:DISL:KATA:1,2017-10-06T04:30:00Z,30.2583,-88.2131,4.308,23.38,1111122 
DISL,ioos:station:DISL:KATA:1,2017-10-06T05:00:00Z,30.2583,-88.2131,4.3,23.4,11111222 
DISL,ioos:station:DISL:KATA:1,2017-10-06T05:30:00Z,30.2583,-88.2131,4.266,22.56,1111122 
DISL,ioos:station:DISL:KATA:1,2017-10-06T06:00:00Z,30.2583,-88.2131,4.3,22.8,11111222 
DISL,ioos:station:DISL:KATA:1,2017-10-06T06:30:00Z,30.2583,-88.2131,4.248,22.71,1111122 
DISL,ioos:station:DISL:KATA:1,2017-10-06T07:00:00Z,30.2583,-88.2131,4.3,23.4,11111222 
DISL,ioos:station:DISL:KATA:1,2017-10-06T07:30:00Z,30.2583,-88.2131,4.245,22.56,1111122 
DISL,ioos:station:DISL:KATA:1,2017-10-06T08:00:00Z,30.2583,-88.2131,4.2,22.7,11111222 
DISL,ioos:station:DISL:KATA:1,2017-10-06T08:30:00Z,30.2583,-88.2131,4.229,22.44,1111122 
DISL,ioos:station:DISL:KATA:1,2017-10-06T09:00:00Z,30.2583,-88.2131,4.2,22.7,11111222 
DISL,ioos:station:DISL:KATA:1,2017-10-06T09:30:00Z,30.2583,-88.2131,4.195,22.52,1111122 
DISL,ioos:station:DISL:KATA:1,2017-10-06T10:00:00Z,30.2583,-88.2131,4.2,22.5,11111222 
DISL,ioos:station:DISL:KATA:1,2017-10-06T10:30:00Z,30.2583,-88.2131,4.176,22.5,1111122 
DISL,ioos:station:DISL:KATA:1,2017-10-06T11:00:00Z,30.2583,-88.2131,4.2,22.5,11111222 
DISL,ioos:station:DISL:KATA:1,2017-10-06T11:30:00Z,30.2583,-88.2131,4.162,22.22,1111122 
DISL,ioos:station:DISL:KATA:1,2017-10-06T12:00:00Z,30.2583,-88.2131,4.2,22.3,11111222 
DISL,ioos:station:DISL:KATA:1,2017-10-06T12:30:00Z,30.2583,-88.2131,4.202,22.54,1111122 
DISL,ioos:station:DISL:KATA:1,2017-10-06T13:00:00Z,30.2583,-88.2131,4.2,22.3,11111222 
DISL,ioos:station:DISL:KATA:1,2017-10-06T13:30:00Z,30.2583,-88.2131,4.269,22.58,1111122 
DISL,ioos:station:DISL:KATA:1,2017-10-06T14:00:00Z,30.2583,-88.2131,4.3,22.3,11111222 
DISL,ioos:station:DISL:KATA:1,2017-10-06T14:30:00Z,30.2583,-88.2131,4.325,22.06,1111122 